DW5244 Weather Reports


Display with metric or nautical units.
time (UTC)temp
F
wind
direction
speed
MPH
gust
MPH
rain 1hr
in
rain 24hr
in
rain mn
in
humidity
%
barometer
mb
20260901191523 95 281 4.0 10.0 0.00 0.00 0.00 26 1015.4
20260901190021 95 294 4.0 15.0 0.00 0.00 0.00 28 1015.5
20260901184517 96 360 4.0 8.0 0.00 0.00 0.00 27 1015.9
20260901183012 93 220 2.0 12.0 0.00 0.00 0.00 30 1016.2
20260901181512 93 360 6.0 10.0 0.00 0.00 0.00 30 1016.5
20260901180005 92 360 6.0 10.0 0.00 0.00 0.00 31 1016.7
20260901174502 91 306 1.0 12.0 0.00 0.00 0.00 32 1016.7
20260901173058 92 360 3.0 11.0 0.00 0.00 0.00 32 1016.9
20260901171605 92 264 4.0 11.0 0.00 0.00 0.00 32 1016.9
20260901170052 90 193 3.0 9.0 0.00 0.00 0.00 37 1017.0
20260901164549 88 283 1.0 5.0 0.00 0.00 0.00 35 1017.0
20260901163046 89 262 1.0 4.0 0.00 0.00 0.00 35 1017.1
20260901161542 88 170 4.0 8.0 0.00 0.00 0.00 38 1017.1
20260901160038 86 211 1.0 6.0 0.00 0.00 0.00 38 1017.0
20260901154534 86 215 2.0 7.0 0.00 0.00 0.00 39 1017.0
20260901153030 86 209 3.0 9.0 0.00 0.00 0.00 41 1017.0
20260901151525 85 349 3.0 9.0 0.00 0.00 0.00 43 1017.1
20260901150021 83 360 6.0 10.0 0.00 0.00 0.00 44 1017.2
20260901144518 81 332 6.0 11.0 0.00 0.00 0.00 47 1017.2
20260901143012 79 346 8.0 12.0 0.00 0.00 0.00 49 1017.2
20260901141508 78 360 7.0 10.0 0.00 0.00 0.00 52 1017.3
20260901140004 76 344 9.0 13.0 0.00 0.00 0.00 55 1017.1
20260901134613 74 360 11.0 14.0 0.00 0.00 0.00 56 1017.0
20260901133054 73 335 8.0 13.0 0.00 0.00 0.00 58 1016.9
20260901131554 72 360 7.0 13.0 0.00 0.00 0.00 60 1016.6
20260901130047 72 322 10.0 13.0 0.00 0.00 0.00 59 1016.4
20260901124544 72 360 10.0 13.0 0.00 0.00 0.00 58 1016.1
20260901123041 73 360 9.0 13.0 0.00 0.00 0.00 58 1016.0
20260901121543 73 360 6.0 11.0 0.00 0.00 0.00 57 1015.9
20260901120043 73 360 8.0 12.0 0.00 0.00 0.00 58 1015.9
20260901114531 74 360 5.0 9.0 0.00 0.00 0.00 56 1015.9
20260901113030 74 360 5.0 9.0 0.00 0.00 0.00 56 1015.8
20260901111529 74 360 9.0 11.0 0.00 0.00 0.00 55 1015.8
20260901110032 75 360 8.0 11.0 0.00 0.00 0.00 55 1015.6
20260901104531 75 360 10.0 14.0 0.00 0.00 0.00 54 1015.4
20260901103025 75 360 8.0 13.0 0.00 0.00 0.00 54 1015.6
20260901101523 75 360 7.0 11.0 0.00 0.00 0.00 54 1015.6
20260901100022 75 360 7.0 10.0 0.00 0.00 0.00 54 1015.7
20260901094521 75 360 6.0 10.0 0.00 0.00 0.00 54 1015.6
20260901093018 75 360 5.0 8.0 0.00 0.00 0.00 54 1015.5
20260901091516 76 360 5.0 9.0 0.00 0.00 0.00 54 1015.5
20260901090017 76 360 6.0 11.0 0.00 0.00 0.00 53 1015.5
20260901084513 76 360 6.0 9.0 0.00 0.00 0.00 53 1015.6
20260901083021 76 355 2.0 4.0 0.00 0.00 0.00 53 1015.5
20260901081510 77 360 6.0 10.0 0.00 0.00 0.00 52 1015.4
20260901080008 77 339 3.0 10.0 0.00 0.00 0.00 52 1015.3
20260901074508 77 332 3.0 6.0 0.00 0.00 0.00 51 1015.4
20260901073004 77 360 1.0 4.0 0.00 0.00 0.00 51 1015.5
20260901071502 78 360 3.0 5.0 0.00 0.00 0.00 49 1015.7
20260901070001 79 360 2.0 4.0 0.00 0.00 0.00 48 1015.6
20260901064600 78 360 2.0 10.0 0.00 0.00 0.00 48 1015.5
20260901063058 79 360 3.0 4.0 0.00 0.00 0.00 48 1015.7
20260901061557 80 360 4.0 9.0 0.00 0.00 0.00 46 1015.7
20260901060051 81 227 4.0 8.0 0.00 0.00 0.00 45 1015.7
20260901054550 81 238 2.0 6.0 0.00 0.00 0.00 44 1015.6
20260901053048 82 227 3.0 8.0 0.00 0.00 0.00 43 1015.5
20260901051545 82 219 1.0 8.0 0.00 0.00 0.00 43 1015.5
20260901050042 82 240 2.0 9.0 0.00 0.00 0.00 41 1015.3
20260901044546 83 241 6.0 15.0 0.00 0.00 0.00 41 1015.1
20260901043042 83 221 3.0 10.0 0.00 0.00 0.00 40 1015.1
20260901041555 84 217 7.0 13.0 0.00 0.00 0.00 40 1015.1
20260901040040 84 215 6.0 15.0 0.00 0.00 0.00 39 1015.1
20260901034540 85 202 8.0 13.0 0.00 0.00 0.00 39 1015.0
20260901033039 85 192 8.0 14.0 0.00 0.00 0.00 40 1014.9
20260901031539 86 194 8.0 19.0 0.00 0.00 0.00 40 1014.7
20260901030038 87 204 6.0 19.0 0.00 0.00 0.00 38 1014.2
20260901024540 87 192 9.0 23.0 0.00 0.00 0.00 38 1013.8
20260901023043 88 208 14.0 26.0 0.00 0.00 0.00 36 1013.1
20260901021538 90 185 13.0 25.0 0.00 0.00 0.00 33 1012.6
20260901020036 91 221 7.0 18.0 0.00 0.00 0.00 28 1012.0
20260901014536 91 225 7.0 14.0 0.00 0.00 0.00 28 1011.6
20260901013034 92 232 6.0 16.0 0.00 0.00 0.00 28 1011.2
20260901011534 92 215 4.0 11.0 0.00 0.00 0.00 27 1011.1
20260901010033 93 211 4.0 10.0 0.00 0.00 0.00 24 1011.0
20260901004533 94 207 4.0 11.0 0.00 0.00 0.00 24 1010.9
20260901003032 94 236 4.0 11.0 0.00 0.00 0.00 25 1011.0
20260901001531 95 360 3.0 9.0 0.00 0.00 0.00 24 1011.2
20260901000034 96 360 6.0 14.0 0.00 0.00 0.00 23 1011.0
20260831234534 96 250 6.0 10.0 0.00 0.00 0.00 24 1011.0
20260831233028 96 204 2.0 12.0 0.00 0.00 0.00 25 1010.9
20260831231539 96 209 5.0 12.0 0.00 0.00 0.00 25 1010.9
20260831230036 99 225 2.0 10.0 0.00 0.00 0.00 24 1011.1
20260831224526 97 202 4.0 9.0 0.00 0.00 0.00 27 1011.1
20260831223024 95 155 2.0 8.0 0.00 0.00 0.00 27 1011.3
20260831221523 91 190 3.0 8.0 0.00 0.00 0.00 26 1011.7
20260831220022 91 355 10.0 17.0 0.00 0.00 0.00 29 1011.9
20260831214525 95 169 15.0 23.0 0.00 0.00 0.00 27 1012.0
20260831213020 100 234 2.0 11.0 0.00 0.00 0.00 22 1011.9
20260831211528 101 248 5.0 10.0 0.00 0.00 0.00 21 1012.1
20260831210014 98 296 1.0 12.0 0.00 0.00 0.00 23 1012.4
20260831204512 99 269 6.0 10.0 0.00 0.00 0.00 23 1012.7
20260831203017 99 360 4.0 8.0 0.00 0.00 0.00 27 1012.9
20260831201506 96 355 6.0 12.0 0.00 0.00 0.00 25 1013.3
20260831200003 94 330 5.0 12.0 0.00 0.00 0.00 29 1013.6
20260831194502 95 360 6.0 12.0 0.00 0.00 0.00 27 1014.0
20260831193001 95 320 3.0 13.0 0.00 0.00 0.00 28 1014.2